SCP
0 0 1 1 0 0 1 1 0 0 0 0 0 0 0 0 0 0 0 0 0 0 0 0 0 0 0 0 0 0 0 0 0 0 0 0 0 0 0 0 0 0 -0
0 0 1 0 0 0 1 0 0 0 0 0 0 0 0 0 0 0 0 0 0 0 0 0 0 0 0 0 0 0 0 0 0 0 0 0 0 -0 -0 -0 -0 -0 -0
0 0 0 0 0 1 1 1 0 0 0 0 0 0 0 0 0 0 0 0 0 0 0 0 0 0 0 0 0 0 0 0 0 0 0 0 0 0 -0 -0 -0 0 0
0 0 1 0 -0 1 1 1 1 0 0 0 0 0 0 0 0 0 0 0 0 0 0 0 0 0 0 0 0 0 0 0 0 0 0 0 0 0 0 0 0 0 0
0 1 1 1 0 0 1 1 1 1 0 0 0 0 0 0 0 0 0 0 0 0 0 0 0 0 0 0 0 0 0 0 0 0 0 0 0 0 0 0 0 0 0
0 0 0 0 0 0 1 1 0 1 0 0 0 0 0 0 0 0 0 0 0 0 0 0 0 0 0 0 0 0 0 0 0 0 0 0 0 0 0 0 0 0 0
0 0 0 0 0 0 1 1 0 1 0 0 0 0 0 0 0 0 0 0 0 0 0 0 0 0 0 0 0 0 0 0 0 0 0 0 0 0 0 0 0 0 0
0 0 0 0 0 0 0 1 0 1 0 1 0 0 0 0 0 0 0 0 0 0 0 0 0 0 0 0 0 0 0 0 0 0 0 0 0 0 0 0 0 0 0
0 0 0 0 0 0 0 0 0 0 0 0 0 0 0 0 0 0 0 0 0 0 0 0 0 0 0 0 0 0 0 0 0 0 0 0 0 0 0 0 0 0 0
0 0 0 0 0 0 0 0 0 0 0 0 0 0 0 0 0 0 0 0 0 0 0 0 0 0 0 0 0 0 0 0 0 0 0 0 0 0 0 0 0 0 0
0 0 0 -0 0 0 0 0 0 0 0 0 0 0 0 0 0 0 0 0 0 0 0 0 0 0 0 0 0 0 0 0 0 0 0 0 0 0 0 0 0 0 0
0 0 -0 0 0 -0 -0 0 0 0 0 0 0 0 0 0 0 0 0 0 0 0 0 0 0 0 0 0 0 0 0 0 0 0 0 0 0 0 0 0 0 0 0
-0 -0 -0 -0 -0 -0 -0 -0 0 0 0 0 0 0 0 0 0 0 0 0 0 0 0 0 0 0 0 0 0 0 0 0 0 0 0 0 0 0 0 0 0 0 0
0 0 0 -0 -0 -0 -0 -0 -0 0 0 0 0 0 0 0 0 0 0 0 0 0 0 0 0 0 0 0 0 0 0 0 0 0 0 0 0 0 0 0 0 0 0
0 0 0 -0 -0 -0 -0 -0 -0 0 0 0 0 0 0 0 0 0 0 0 0 0 0 0 0 0 0 0 0 0 0 0 0 0 0 0 0 0 0 0 0 0 0
0 0 0 0 -0 -0 -0 -0 -0 -0 0 -0 0 0 0 0 0 0 0 0 0 0 0 0 0 0 0 0 0 0 0 0 0 0 0 0 0 0 0 0 0 0 0
0 0 0 0 -0 -0 -0 0 0 -0 0 0 0 0 0 0 0 0 0 0 0 0 0 0 0 0 0 0 0 0 0 0 0 0 0 0 0 0 0 0 0 0 0
0 0 0 0 -0 -0 0 0 0 0 -0 0 0 0 0 0 0 0 0 0 0 0 0 0 0 0 0 0 0 0 0 0 0 0 0 0 0 0 0 0 0 0 0
0 0 0 0 0 -0 0 0 0 0 0 -0 0 0 0 0 0 0 0 0 0 0 0 0 0 0 0 0 0 0 0 0 0 0 0 0 0 0 0 0 0 0 0
0 0 0 0 0 0 0 0 0 0 0 0 0 0 0 0 0 0 0 0 0 0 0 0 0 0 0 0 0 0 0 0 0 0 0 0 0 0 0 0 0 0 0
0 0 -0 0 0 0 0 0 0 0 0 0 0 0 0 0 0 0 0 0 0 0 0 0 0 0 0 0 0 0 0 0 0 0 0 0 0 0 0 0 0 0 0
0 0 0 0 0 0 0 0 0 0 0 0 0 0 0 0 0 0 0 0 0 0 0 0 0 0 0 0 0 0 0 0 0 0 0 0 0 0 0 0 0 0 0
0 0 0 0 0 0 0 0 0 0 0 0 0 0 0 0 0 0 -0 0 0 0 0 0 0 0 0 0 0 0 0 0 0 0 0 0 0 0 0 0 0 0 0
0 0 0 0 0 0 0 0 0 0 0 0 0 0 0 0 0 0 0 0 0 0 0 0 0 0 0 0 0 0 0 0 0 0 0 0 0 0 0 0 0 0 0
0 0 -0 0 0 0 0 0 0 0 0 0 0 0 0 0 0 0 0 0 0 0 0 0 0 0 0 0 0 0 0 0 0 0 0 0 0 0 0 0 0 0 0
0 -0 -0 -0 0 0 0 0 0 0 0 0 0 0 0 0 0 0 0 0 0 0 0 0 0 0 0 0 0 0 0 0 0 0 0 0 0 0 0 0 0 0 0
Wind_Speed_500mb
11 12 12 7 16 30 39 41 43 43 48 54 57 55 50 46 40 38 36 34 33 32 30 31 36 33 31 30 24 25 26 24 22 25 26 26 27 26 25 29 29 33 42
10 9 10 8 20 30 42 44 43 43 48 53 55 53 45 42 37 36 36 34 31 29 28 28 33 36 33 28 31 33 32 28 26 28 29 30 29 29 32 34 36 30 32
10 9 10 8 12 33 41 44 45 44 47 50 49 46 43 39 38 38 36 33 31 28 28 31 36 36 39 37 36 32 30 30 28 27 27 28 31 28 28 30 29 27 23
18 14 11 13 8 32 40 44 45 45 45 48 47 44 41 38 38 41 38 34 29 30 34 36 39 45 45 38 29 32 30 26 24 25 24 23 25 23 20 16 15 16 11
11 5 5 11 14 21 42 45 46 47 45 47 46 43 41 40 41 42 40 35 31 26 37 41 46 47 42 35 34 33 27 26 26 21 16 12 22 21 23 20 9 6 6
10 11 6 8 16 18 41 50 51 46 47 48 47 44 42 41 43 43 41 38 37 28 37 45 48 43 38 34 33 31 29 29 27 25 22 26 27 22 18 17 11 9 5
3 6 8 15 18 24 40 51 55 53 49 48 48 45 43 43 45 45 43 41 42 31 39 43 45 40 34 35 33 32 32 28 29 26 28 20 18 20 15 15 13 10 8
14 4 12 18 27 31 35 52 57 56 55 51 50 49 46 46 47 46 46 45 46 36 37 42 41 40 37 33 32 34 33 31 30 28 23 21 15 10 8 12 15 14 10
25 14 11 15 23 36 44 53 58 59 60 56 52 51 50 49 49 47 48 49 47 44 45 42 37 39 39 35 34 36 34 32 30 27 24 21 15 12 9 10 12 15 14
26 18 13 20 27 35 39 56 60 60 62 62 59 57 52 49 47 49 52 51 50 46 48 43 42 38 38 37 35 35 36 36 30 28 25 22 16 10 10 9 12 15 15
30 29 29 23 29 37 36 56 63 62 62 63 62 62 55 53 49 41 55 58 55 51 47 45 38 38 39 37 34 33 39 42 34 31 25 21 17 17 12 7 10 14 14
46 39 38 39 32 39 47 45 56 65 63 67 68 67 61 59 56 47 48 59 55 53 51 43 38 39 37 36 35 36 35 44 37 32 26 24 19 18 18 9 10 13 14
52 46 39 44 45 42 46 43 37 64 67 69 72 71 68 66 62 53 55 55 57 51 48 43 42 43 38 36 35 32 32 42 40 31 27 27 24 25 26 15 14 11 14
56 52 45 40 48 56 49 41 40 35 59 80 78 77 74 74 69 62 60 55 61 61 54 49 45 42 42 38 33 26 28 37 44 32 32 29 26 26 30 29 20 16 16
56 53 44 37 37 47 50 43 38 54 40 51 84 83 82 82 77 72 65 59 60 60 59 55 49 44 43 37 35 26 23 31 34 33 37 33 28 30 29 28 25 21 18
52 51 45 31 36 40 46 44 38 41 57 76 43 89 90 89 84 78 68 65 64 61 58 53 50 46 43 38 38 32 34 32 39 39 38 34 33 34 31 31 29 29 31
46 44 43 40 36 42 40 33 30 30 40 50 91 61 92 94 91 83 76 68 67 61 61 53 50 45 42 41 41 37 36 37 39 39 42 35 32 34 35 33 34 37 37
44 44 44 37 33 39 31 29 25 20 23 30 49 68 94 92 98 93 80 72 63 59 61 58 54 49 45 46 44 44 44 36 36 42 44 44 41 37 38 36 34 37 40
39 37 33 24 29 34 25 27 27 24 16 17 24 66 62 86 71 66 80 77 65 54 59 58 58 48 49 46 45 40 39 40 38 37 40 44 45 45 46 38 35 35 38
33 33 33 34 30 36 23 26 27 27 15 13 28 40 70 75 78 79 67 65 64 55 53 63 54 49 43 47 50 46 39 39 33 34 40 43 46 47 46 42 42 44 46
10 25 33 42 41 24 23 31 27 30 14 13 28 28 42 71 68 50 59 67 65 59 38 57 50 43 43 36 26 30 29 34 29 33 32 36 34 35 40 44 47 48 52
12 12 18 28 29 24 29 32 28 23 15 15 28 32 46 47 56 65 47 28 52 45 45 44 53 49 42 42 42 36 20 27 31 32 32 38 47 48 47 50 52 52 52
15 12 21 29 29 29 32 32 26 29 21 28 33 39 27 21 57 67 16 38 49 54 54 48 42 44 46 47 38 21 11 15 18 24 33 36 38 40 43 47 52 55 57
22 23 23 28 35 37 30 30 29 33 32 41 37 28 30 30 49 42 36 46 50 57 44 40 41 39 45 42 41 49 41 31 15 13 21 26 34 39 41 43 43 40 39
25 28 37 28 32 33 25 24 27 32 29 28 34 31 35 29 48 50 41 38 40 36 38 33 29 37 34 34 40 37 40 44 47 45 28 24 25 28 28 23 25 22 24
18 25 26 26 29 21 24 28 31 25 34 48 42 37 42 56 63 57 54 52 43 45 42 35 32 31 30 37 36 37 36 30 21 26 30 28 19 19 14 18 16 21 26
Wind_Direction_500mb
315 303 307 183 207 190 188 184 179 178 173 173 171 171 173 175 183 187 190 192 184 176 169 169 177 174 167 168 169 161 150 142 142 139 129 127 128 126 130 131 122 112 122
299 306 290 210 217 195 190 186 183 179 178 178 180 182 185 185 189 190 185 181 181 182 180 175 171 171 169 165 152 142 138 134 128 131 132 130 132 127 129 133 137 134 134
342 301 258 255 215 196 188 187 187 184 184 185 187 190 189 190 185 183 180 178 180 184 178 165 161 158 155 149 144 141 140 127 127 128 132 134 133 134 131 139 149 149 147
23 314 240 262 245 198 194 197 192 192 189 192 193 193 191 192 187 180 178 177 179 182 169 162 158 153 152 153 152 149 153 139 141 138 144 147 142 141 142 155 161 161 177
99 44 256 257 237 218 202 205 204 200 197 195 197 196 195 192 185 180 176 170 164 171 166 164 161 158 160 158 150 151 157 146 139 131 131 170 154 149 155 168 179 191 192
54 74 28 276 240 248 214 212 208 207 205 201 199 200 198 194 187 181 174 164 169 177 175 169 164 167 166 158 157 163 160 150 144 158 162 168 164 173 187 199 195 187 206
82 115 174 235 255 253 229 215 214 210 208 208 203 201 199 195 189 185 177 173 179 183 178 172 170 172 175 169 167 169 165 162 150 162 160 178 181 198 201 189 200 211 218
17 206 211 229 236 245 232 225 218 215 213 211 209 203 201 198 195 193 184 179 183 185 175 182 183 181 182 181 173 175 174 169 157 176 188 203 218 189 206 204 202 208 209
15 343 295 278 261 244 237 231 223 219 216 213 213 209 203 200 199 197 195 189 188 187 186 193 192 190 188 187 180 178 180 179 165 190 197 198 207 188 189 201 197 199 195
338 348 296 286 266 259 251 226 228 225 218 214 215 210 206 202 201 202 203 197 189 192 193 198 205 200 194 190 186 184 183 182 179 200 200 202 213 222 206 201 207 197 190
294 318 315 282 276 271 244 236 222 226 226 217 216 212 210 207 199 210 201 198 195 194 194 207 200 198 196 194 188 186 188 183 186 203 207 213 214 248 242 225 216 209 206
288 292 295 296 283 275 280 245 228 219 224 219 216 212 213 209 198 203 211 196 192 190 190 191 195 191 198 199 193 187 189 189 190 206 213 223 225 241 271 263 214 217 219
282 289 288 288 283 286 292 272 245 222 219 222 217 214 214 209 202 203 212 211 188 185 195 192 197 192 200 202 200 199 192 194 196 206 218 228 241 250 270 268 236 219 221
282 282 289 287 280 281 288 303 268 247 227 222 220 215 215 210 205 204 211 208 188 190 193 197 204 195 199 210 204 204 209 202 202 208 227 230 237 248 265 272 246 225 213
283 284 286 283 281 279 282 290 290 252 242 229 225 217 215 214 209 205 211 207 202 193 195 198 206 207 205 212 197 193 213 207 202 221 229 237 237 247 259 260 268 261 269
274 275 278 273 287 284 282 285 293 280 252 251 241 222 215 217 213 209 210 206 210 197 199 199 209 210 206 205 205 198 214 209 214 226 232 236 240 240 247 252 251 261 276
267 269 267 265 284 287 282 272 277 278 264 254 234 234 219 217 216 210 207 209 212 206 198 198 209 211 209 202 214 211 219 220 222 224 230 233 243 247 258 251 246 248 252
257 266 261 261 277 284 283 265 246 255 288 274 236 236 219 213 217 209 208 209 212 209 202 203 208 209 209 209 214 225 227 224 227 229 235 241 246 254 257 255 253 256 260
269 269 256 257 270 279 275 265 245 239 239 281 250 236 198 214 209 217 211 210 209 209 204 204 211 215 215 213 214 218 232 234 236 235 237 240 249 254 257 273 270 271 273
261 248 253 266 269 277 268 270 249 234 226 248 231 228 217 217 211 214 221 213 206 205 208 208 213 216 216 224 218 217 225 235 237 243 245 246 245 254 262 269 268 268 271
283 274 273 279 261 260 274 281 258 234 229 221 210 216 204 210 213 204 231 216 203 201 209 214 213 218 211 216 211 207 231 247 244 249 257 258 268 265 257 255 257 261 262
297 290 283 272 268 253 272 276 269 239 214 208 194 191 195 222 234 223 216 239 199 201 211 219 224 222 224 223 227 239 230 242 260 272 262 257 256 256 259 262 266 260 260
267 263 273 279 273 266 269 270 261 228 210 181 180 194 198 209 209 179 269 239 221 211 207 218 229 224 227 232 235 207 188 207 229 238 242 247 250 255 259 262 260 258 258
245 245 286 282 263 262 262 247 234 226 212 203 192 171 167 179 198 230 244 199 202 203 204 213 227 231 229 231 236 247 253 245 235 241 254 248 248 250 246 246 250 255 263
286 278 291 289 272 263 254 222 226 223 220 196 165 163 181 189 196 190 195 194 192 193 199 198 220 223 220 227 230 240 242 243 252 252 248 233 252 246 252 268 273 278 274
348 298 291 289 278 281 233 222 216 200 193 172 165 161 177 183 190 192 182 181 188 201 203 197 214 223 231 225 227 231 230 221 233 246 251 241 241 255 265 274 289 291 296
Wind_Speed_850mb
11 12 12 7 16 30 39 41 43 43 48 54 57 55 50 46 40 38 36 34 33 32 30 31 36 33 31 30 24 25 26 24 22 25 26 26 27 26 25 29 29 33 42
10 9 10 8 20 30 42 44 43 43 48 53 55 53 45 42 37 36 36 34 31 29 28 28 33 36 33 28 31 33 32 28 26 28 29 30 29 29 32 34 36 30 32
10 9 10 8 12 33 41 44 45 44 47 50 49 46 43 39 38 38 36 33 31 28 28 31 36 36 39 37 36 32 30 30 28 27 27 28 31 28 28 30 29 27 23
18 14 11 13 8 32 40 44 45 45 45 48 47 44 41 38 38 41 38 34 29 30 34 36 39 45 45 38 29 32 30 26 24 25 24 23 25 23 20 16 15 16 11
11 5 5 11 14 21 42 45 46 47 45 47 46 43 41 40 41 42 40 35 31 26 37 41 46 47 42 35 34 33 27 26 26 21 16 12 22 21 23 20 9 6 6
10 11 6 8 16 18 41 50 51 46 47 48 47 44 42 41 43 43 41 38 37 28 37 45 48 43 38 34 33 31 29 29 27 25 22 26 27 22 18 17 11 9 5
3 6 8 15 18 24 40 51 55 53 49 48 48 45 43 43 45 45 43 41 42 31 39 43 45 40 34 35 33 32 32 28 29 26 28 20 18 20 15 15 13 10 8
14 4 12 18 27 31 35 52 57 56 55 51 50 49 46 46 47 46 46 45 46 36 37 42 41 40 37 33 32 34 33 31 30 28 23 21 15 10 8 12 15 14 10
25 14 11 15 23 36 44 53 58 59 60 56 52 51 50 49 49 47 48 49 47 44 45 42 37 39 39 35 34 36 34 32 30 27 24 21 15 12 9 10 12 15 14
26 18 13 20 27 35 39 56 60 60 62 62 59 57 52 49 47 49 52 51 50 46 48 43 42 38 38 37 35 35 36 36 30 28 25 22 16 10 10 9 12 15 15
30 29 29 23 29 37 36 56 63 62 62 63 62 62 55 53 49 41 55 58 55 51 47 45 38 38 39 37 34 33 39 42 34 31 25 21 17 17 12 7 10 14 14
46 39 38 39 32 39 47 45 56 65 63 67 68 67 61 59 56 47 48 59 55 53 51 43 38 39 37 36 35 36 35 44 37 32 26 24 19 18 18 9 10 13 14
52 46 39 44 45 42 46 43 37 64 67 69 72 71 68 66 62 53 55 55 57 51 48 43 42 43 38 36 35 32 32 42 40 31 27 27 24 25 26 15 14 11 14
56 52 45 40 48 56 49 41 40 35 59 80 78 77 74 74 69 62 60 55 61 61 54 49 45 42 42 38 33 26 28 37 44 32 32 29 26 26 30 29 20 16 16
56 53 44 37 37 47 50 43 38 54 40 51 84 83 82 82 77 72 65 59 60 60 59 55 49 44 43 37 35 26 23 31 34 33 37 33 28 30 29 28 25 21 18
52 51 45 31 36 40 46 44 38 41 57 76 43 89 90 89 84 78 68 65 64 61 58 53 50 46 43 38 38 32 34 32 39 39 38 34 33 34 31 31 29 29 31
46 44 43 40 36 42 40 33 30 30 40 50 91 61 92 94 91 83 76 68 67 61 61 53 50 45 42 41 41 37 36 37 39 39 42 35 32 34 35 33 34 37 37
44 44 44 37 33 39 31 29 25 20 23 30 49 68 94 92 98 93 80 72 63 59 61 58 54 49 45 46 44 44 44 36 36 42 44 44 41 37 38 36 34 37 40
39 37 33 24 29 34 25 27 27 24 16 17 24 66 62 86 71 66 80 77 65 54 59 58 58 48 49 46 45 40 39 40 38 37 40 44 45 45 46 38 35 35 38
33 33 33 34 30 36 23 26 27 27 15 13 28 40 70 75 78 79 67 65 64 55 53 63 54 49 43 47 50 46 39 39 33 34 40 43 46 47 46 42 42 44 46
10 25 33 42 41 24 23 31 27 30 14 13 28 28 42 71 68 50 59 67 65 59 38 57 50 43 43 36 26 30 29 34 29 33 32 36 34 35 40 44 47 48 52
12 12 18 28 29 24 29 32 28 23 15 15 28 32 46 47 56 65 47 28 52 45 45 44 53 49 42 42 42 36 20 27 31 32 32 38 47 48 47 50 52 52 52
15 12 21 29 29 29 32 32 26 29 21 28 33 39 27 21 57 67 16 38 49 54 54 48 42 44 46 47 38 21 11 15 18 24 33 36 38 40 43 47 52 55 57
22 23 23 28 35 37 30 30 29 33 32 41 37 28 30 30 49 42 36 46 50 57 44 40 41 39 45 42 41 49 41 31 15 13 21 26 34 39 41 43 43 40 39
25 28 37 28 32 33 25 24 27 32 29 28 34 31 35 29 48 50 41 38 40 36 38 33 29 37 34 34 40 37 40 44 47 45 28 24 25 28 28 23 25 22 24
18 25 26 26 29 21 24 28 31 25 34 48 42 37 42 56 63 57 54 52 43 45 42 35 32 31 30 37 36 37 36 30 21 26 30 28 19 19 14 18 16 21 26
Wind_Direction_850mb
315 303 307 183 207 190 188 184 179 178 173 173 171 171 173 175 183 187 190 192 184 176 169 169 177 174 167 168 169 161 150 142 142 139 129 127 128 126 130 131 122 112 122
299 306 290 210 217 195 190 186 183 179 178 178 180 182 185 185 189 190 185 181 181 182 180 175 171 171 169 165 152 142 138 134 128 131 132 130 132 127 129 133 137 134 134
342 301 258 255 215 196 188 187 187 184 184 185 187 190 189 190 185 183 180 178 180 184 178 165 161 158 155 149 144 141 140 127 127 128 132 134 133 134 131 139 149 149 147
23 314 240 262 245 198 194 197 192 192 189 192 193 193 191 192 187 180 178 177 179 182 169 162 158 153 152 153 152 149 153 139 141 138 144 147 142 141 142 155 161 161 177
99 44 256 257 237 218 202 205 204 200 197 195 197 196 195 192 185 180 176 170 164 171 166 164 161 158 160 158 150 151 157 146 139 131 131 170 154 149 155 168 179 191 192
54 74 28 276 240 248 214 212 208 207 205 201 199 200 198 194 187 181 174 164 169 177 175 169 164 167 166 158 157 163 160 150 144 158 162 168 164 173 187 199 195 187 206
82 115 174 235 255 253 229 215 214 210 208 208 203 201 199 195 189 185 177 173 179 183 178 172 170 172 175 169 167 169 165 162 150 162 160 178 181 198 201 189 200 211 218
17 206 211 229 236 245 232 225 218 215 213 211 209 203 201 198 195 193 184 179 183 185 175 182 183 181 182 181 173 175 174 169 157 176 188 203 218 189 206 204 202 208 209
15 343 295 278 261 244 237 231 223 219 216 213 213 209 203 200 199 197 195 189 188 187 186 193 192 190 188 187 180 178 180 179 165 190 197 198 207 188 189 201 197 199 195
338 348 296 286 266 259 251 226 228 225 218 214 215 210 206 202 201 202 203 197 189 192 193 198 205 200 194 190 186 184 183 182 179 200 200 202 213 222 206 201 207 197 190
294 318 315 282 276 271 244 236 222 226 226 217 216 212 210 207 199 210 201 198 195 194 194 207 200 198 196 194 188 186 188 183 186 203 207 213 214 248 242 225 216 209 206
288 292 295 296 283 275 280 245 228 219 224 219 216 212 213 209 198 203 211 196 192 190 190 191 195 191 198 199 193 187 189 189 190 206 213 223 225 241 271 263 214 217 219
282 289 288 288 283 286 292 272 245 222 219 222 217 214 214 209 202 203 212 211 188 185 195 192 197 192 200 202 200 199 192 194 196 206 218 228 241 250 270 268 236 219 221
282 282 289 287 280 281 288 303 268 247 227 222 220 215 215 210 205 204 211 208 188 190 193 197 204 195 199 210 204 204 209 202 202 208 227 230 237 248 265 272 246 225 213
283 284 286 283 281 279 282 290 290 252 242 229 225 217 215 214 209 205 211 207 202 193 195 198 206 207 205 212 197 193 213 207 202 221 229 237 237 247 259 260 268 261 269
274 275 278 273 287 284 282 285 293 280 252 251 241 222 215 217 213 209 210 206 210 197 199 199 209 210 206 205 205 198 214 209 214 226 232 236 240 240 247 252 251 261 276
267 269 267 265 284 287 282 272 277 278 264 254 234 234 219 217 216 210 207 209 212 206 198 198 209 211 209 202 214 211 219 220 222 224 230 233 243 247 258 251 246 248 252
257 266 261 261 277 284 283 265 246 255 288 274 236 236 219 213 217 209 208 209 212 209 202 203 208 209 209 209 214 225 227 224 227 229 235 241 246 254 257 255 253 256 260
269 269 256 257 270 279 275 265 245 239 239 281 250 236 198 214 209 217 211 210 209 209 204 204 211 215 215 213 214 218 232 234 236 235 237 240 249 254 257 273 270 271 273
261 248 253 266 269 277 268 270 249 234 226 248 231 228 217 217 211 214 221 213 206 205 208 208 213 216 216 224 218 217 225 235 237 243 245 246 245 254 262 269 268 268 271
283 274 273 279 261 260 274 281 258 234 229 221 210 216 204 210 213 204 231 216 203 201 209 214 213 218 211 216 211 207 231 247 244 249 257 258 268 265 257 255 257 261 262
297 290 283 272 268 253 272 276 269 239 214 208 194 191 195 222 234 223 216 239 199 201 211 219 224 222 224 223 227 239 230 242 260 272 262 257 256 256 259 262 266 260 260
267 263 273 279 273 266 269 270 261 228 210 181 180 194 198 209 209 179 269 239 221 211 207 218 229 224 227 232 235 207 188 207 229 238 242 247 250 255 259 262 260 258 258
245 245 286 282 263 262 262 247 234 226 212 203 192 171 167 179 198 230 244 199 202 203 204 213 227 231 229 231 236 247 253 245 235 241 254 248 248 250 246 246 250 255 263
286 278 291 289 272 263 254 222 226 223 220 196 165 163 181 189 196 190 195 194 192 193 199 198 220 223 220 227 230 240 242 243 252 252 248 233 252 246 252 268 273 278 274
348 298 291 289 278 281 233 222 216 200 193 172 165 161 177 183 190 192 182 181 188 201 203 197 214 223 231 225 227 231 230 221 233 246 251 241 241 255 265 274 289 291 296